Stations météo

réclame
Mon MeteoGroup
Aachen-Orsbach, Allemagne (10505): Température de l'air & dewpoint: 16.10.2019 11:00:00 - 22.10.2019 11:00:00 (CEST)Aachen-Orsbach, Allemagne (10505): Température de l'air 5cm & Température de l'air -5cm: 16.10.2019 11:00:00 - 22.10.2019 11:00:00 (CEST)Aachen-Orsbach, Allemagne (10505): Température de l'air -20cm & Température de l'air -100cm: 16.10.2019 11:00:00 - 22.10.2019 11:00:00 (CEST)Aachen-Orsbach, Allemagne (10505): Vitesse du vent & gusts: 16.10.2019 11:00:00 - 22.10.2019 11:00:00 (CEST)Aachen-Orsbach, Allemagne (10505): Direction du vent: 16.10.2019 11:00:00 - 22.10.2019 11:00:00 (CEST)Aachen-Orsbach, Allemagne (10505): reduced air pressure: 16.10.2019 11:00:00 - 22.10.2019 11:00:00 (CEST)Aachen-Orsbach, Allemagne (10505): visibility: 16.10.2019 11:00:00 - 22.10.2019 11:00:00 (CEST)Aachen-Orsbach, Allemagne (10505): Ensoleillement: 16.10.2019 11:00:00 - 22.10.2019 11:00:00 (CEST)Aachen-Orsbach, Allemagne (10505): Quantités de précipitations: 16.10.2019 11:00:00 - 22.10.2019 11:00:00 (CEST)
Date & Time tt [°C] td [°C] tt 5cm [°C] tt -5cm [°C] tt -20cm [°C] tt -100cm [°C] ff [km/h] ff [knt] fx [km/h] fx [knt] dd ppp [hPa] vv [km] sd [min] rr [mm]
22.10.2019 11:00:00 10,9 9,0 11,8 10,7 11,5 13,8 18 10 27 15 SW 1025,2 36 6 0,0
22.10.2019 10:00:00 10,4 8,5 10,5 10,4 11,5 13,8 17 9 31 17 SW 1024,6 35 0 0,0
22.10.2019 09:00:00 10,3 8,3 10,1 10,2 11,6 13,8 21 11 28 15 SW 1024,0 41 0 0,0
22.10.2019 08:00:00 10,3 8,2 10,0 10,2 11,6 13,8 18 10 36 20 SSW 1023,3 43 0 0,0
22.10.2019 07:00:00 10,3 8,0 9,9 10,3 11,6 13,8 24 13 33 18 SSW 1022,5 47 0 0,0
22.10.2019 06:00:00 10,5 8,0 10,2 10,4 11,7 13,8 25 13 37 20 SSW 1022,6 52 0 0,0
22.10.2019 05:00:00 10,9 8,0 10,5 10,4 11,7 13,8 21 12 34 19 SSW 1022,3 63 0 0,0
22.10.2019 04:00:00 10,8 8,0 10,4 10,5 11,8 13,8 19 10 33 18 SW 1022,5 61 0 0,0
22.10.2019 03:00:00 10,7 8,0 10,3 10,5 11,8 13,9 15 8 21 11 SSW 1022,4 59 0 0,0
22.10.2019 02:00:00 10,9 7,9 10,4 10,5 11,9 13,9 15 8 29 16 SSW 1022,4 66 0 0,0
22.10.2019 01:00:00 11,0 7,7 10,2 10,6 11,9 13,9 17 9 33 18 SSW 1022,0 61 0 0,0
22.10.2019 00:00:00 11,5 7,6 10,9 10,8 12,0 13,9 18 10 33 18 SSW 1021,7 65 0 0,0
21.10.2019 23:00:00 11,7 7,3 11,0 10,9 12,1 13,9 18 10 36 19 SSW 1021,2 75 0 0,0
21.10.2019 22:00:00 11,9 7,1 11,2 11,0 12,1 13,9 19 10 33 18 S 1020,9 75 0 0,0
21.10.2019 21:00:00 11,8 7,3 11,2 11,3 12,1 13,9 18 10 30 16 SSW 1020,7 75 0 0,0
21.10.2019 20:00:00 11,7 8,0 11,1 11,5 12,2 13,9 11 6 20 11 SW 1020,6 75 0 0,0
21.10.2019 19:00:00 12,0 7,8 11,3 11,8 12,1 13,9 10 6 20 11 S 1019,8 75 0 0,0
21.10.2019 18:00:00 12,2 7,8 11,9 12,2 12,1 13,9 14 8 30 16 SSW 1019,1 75 0 0,0
21.10.2019 17:00:00 12,6 8,5 12,5 12,6 12,0 13,9 16 8 28 15 SSW 1018,7 75 0 0,0
21.10.2019 16:00:00 12,7 7,9 12,9 12,9 11,9 13,9 12 6 34 19 SSW 1018,2 75 4 0,0
21.10.2019 15:00:00 12,6 8,1 13,1 12,6 11,9 13,9 29 16 49 26 SSW 1017,9 75 1 0,0
21.10.2019 14:00:00 12,7 8,3 13,4 12,5 11,8 13,9 26 14 50 27 SSW 1017,7 75 0 0,0
21.10.2019 13:00:00 12,5 7,9 12,7 12,4 11,7 13,9 26 14 42 23 SSW 1017,2 75 0 0,0
21.10.2019 12:00:00 12,6 8,2 13,0 12,4 11,6 13,9 30 16 48 26 SW 1016,6 75 11 0,0
21.10.2019 11:00:00 13,4 9,6 13,5 12,3 11,6 13,9 21 12 39 21 SW 1015,2 72 35 0,0
21.10.2019 10:00:00 14,0 10,3 14,2 11,3 11,6 13,9 21 12 33 18 S 1014,0 75 56 0,0
21.10.2019 09:00:00 13,4 11,2 11,8 10,9 11,6 13,9 13 7 21 11 S 1013,1 59 0 0,0
21.10.2019 08:00:00 13,5 11,3 11,7 10,8 11,6 13,9 15 8 23 12 S 1011,9 65 0 0,0
21.10.2019 07:00:00 13,0 11,9 11,8 10,7 11,6 13,9 13 7 19 11 S 1011,4 65 0 0,0
21.10.2019 06:00:00 11,0 10,7 10,7 10,7 11,6 13,9 11 6 15 8 SE 1011,6 16 0 0,0
21.10.2019 05:00:00 10,1 10,0 9,7 10,7 11,6 13,9 10 5 14 8 ESE 1011,5 0,7 0 0,0
21.10.2019 04:00:00 10,5 10,4 10,5 10,6 11,6 13,9 9 5 13 7 E 1010,7 3,8 0 0,0
21.10.2019 03:00:00 10,6 10,5 10,3 10,9 11,6 13,9 9 5 11 6 E 1010,3 3,3 0 0,0
21.10.2019 02:00:00 10,7 10,7 10,8 10,9 11,6 14,0 3 2 21 11 NE 1010,3 4,8 0 0,0
21.10.2019 01:00:00 10,6 10,6 10,6 10,9 11,7 14,0 18 10 23 12 E 1010,0 1,0 0 0,0
21.10.2019 00:00:00 10,4 10,3 10,5 10,8 11,7 14,0 13 7 17 9 E 1010,0 2,0 0 0,4
20.10.2019 23:00:00 10,2 10,2 10,4 10,8 11,7 14,0 11 6 19 10 ENE 1009,2 0,4 0 1,2
20.10.2019 22:00:00 10,1 10,1 10,2 10,8 11,7 14,0 9 5 16 9 NE 1009,2 0,1 0 0,0
20.10.2019 21:00:00 9,9 9,9 10,0 10,8 11,7 14,0 8 5 17 9 NE 1009,2 0,1 0 0,0
20.10.2019 20:00:00 9,8 9,8 9,9 10,9 11,7 14,0 12 7 19 10 NNE 1008,4 0,3 0 0,0
20.10.2019 19:00:00 9,9 9,7 10,0 11,0 11,7 14,0 10 6 16 9 NNE 1008,2 1,6 0 0,8
20.10.2019 18:00:00 10,2 9,8 10,2 11,1 11,7 14,0 10 6 24 13 ENE 1008,6 7 0 0,0
20.10.2019 17:00:00 10,3 9,7 10,2 11,3 11,7 14,0 14 8 30 16 NE 1007,7 11 0 0,5
20.10.2019 16:00:00 10,6 10,1 10,8 11,3 11,7 14,0 14 8 25 14 NE 1007,8 7 0 1,1
20.10.2019 15:00:00 10,3 9,9 10,6 11,2 11,7 14,0 15 8 22 12 NE 1008,0 6 0 3,3
20.10.2019 14:00:00 10,4 10,0 10,5 11,3 11,7 14,0 12 7 26 14 NE 1008,8 5 0 1,8
20.10.2019 13:00:00 10,9 10,7 11,0 11,2 11,6 14,0 13 7 21 12 NE 1008,0 6 0 0,6
20.10.2019 12:00:00 10,7 10,5 10,9 11,1 11,6 14,0 14 7 19 10 NNE 1008,0 6 0 2,2
20.10.2019 11:00:00 10,8 10,1 10,7 10,9 11,6 14,0 8 4 14 8 NE 1008,4 7 0 0,2
20.10.2019 10:00:00 10,8 10,0 10,8 10,7 11,7 14,0 8 4 14 7 ENE 1008,1 29 0 0,0
20.10.2019 09:00:00 10,4 9,7 10,2 10,4 11,7 14,0 7 4 8 5 ENE 1007,6 26 0 0,0
20.10.2019 08:00:00 10,1 10,0 9,7 10,4 11,7 14,0 2 1 6 4 ESE 1008,0 14 0 0,0
20.10.2019 07:00:00 10,0 9,9 9,7 10,4 11,8 14,0 4 2 8 4 E 1007,7 5 0 0,0
20.10.2019 06:00:00 10,1 9,9 9,7 10,4 11,8 14,0 5 3 7 4 ESE 1007,8 14 0 0,1
20.10.2019 05:00:00 10,1 9,6 9,6 10,4 11,8 14,0 4 2 8 4 SE 1007,8 18 0 0,6
20.10.2019 04:00:00 10,4 9,5 9,6 10,4 11,9 14,0 5 3 11 6 SE 1007,3 42 0 0,0
20.10.2019 03:00:00 10,5 9,4 9,8 10,5 11,9 14,0 11 6 14 8 SW 1007,2 57 0 0,0
20.10.2019 02:00:00 10,4 9,4 9,9 10,5 12,0 14,0 12 6 17 9 SSW 1007,8 60 0 0,0
20.10.2019 01:00:00 11,0 9,3 10,3 10,6 12,1 14,0 14 8 20 11 SSW 1007,9 70 0 0,0
20.10.2019 00:00:00 11,1 9,4 10,1 10,6 12,1 14,1 15 8 22 12 SSW 1007,7 67 0 0,0
19.10.2019 23:00:00 11,0 9,3 10,0 10,7 12,2 14,1 16 8 21 11 SSW 1007,3 61 0 0,0
19.10.2019 22:00:00 11,2 9,4 10,0 10,9 12,2 14,1 13 7 18 10 SSW 1006,9 68 0 0,0
19.10.2019 21:00:00 11,3 9,5 10,4 11,0 12,3 14,1 12 7 19 11 S 1006,6 75 0 0,0
19.10.2019 20:00:00 11,2 10,0 9,9 11,5 12,3 14,1 10 6 20 11 SSW 1006,1 60 0 0,0
19.10.2019 19:00:00 11,6 10,4 10,6 11,9 12,3 14,1 13 7 21 11 SSW 1005,8 72 0 0,0
19.10.2019 18:00:00 11,8 10,6 11,3 12,2 12,2 14,1 13 7 23 13 WSW 1005,4 75 0 0,1
19.10.2019 17:00:00 11,9 10,9 11,5 12,4 12,2 14,1 14 8 26 14 SSW 1005,1 27 0 1,0
19.10.2019 16:00:00 12,1 11,1 11,9 12,5 12,1 14,1 16 9 32 18 SW 1005,2 33 0 0,6
19.10.2019 15:00:00 11,9 11,2 11,7 12,6 12,0 14,1 19 10 30 16 SW 1005,1 17 0 3,5
19.10.2019 14:00:00 12,2 11,0 12,1 12,9 11,8 14,1 22 12 36 19 SSW 1004,9 4,8 2 0,7
19.10.2019 13:00:00 13,3 10,5 13,2 12,4 11,7 14,1 22 12 42 23 SSW 1005,0 39 3 0,0
19.10.2019 12:00:00 13,4 9,8 13,8 11,8 11,7 14,1 26 14 42 23 SSW 1005,0 61 1 0,0
19.10.2019 11:00:00 12,8 9,7 13,1 11,2 11,7 14,1 26 14 41 22 SSW 1004,8 52 6 0,0
19.10.2019 10:00:00 12,0 9,6 11,8 10,4 11,7 14,1 22 12 34 19 S 1004,8 62 0 0,0
19.10.2019 09:00:00 11,6 8,8 10,8 10,1 11,7 14,1 24 13 35 19 S 1005,1 51 0 0,0
19.10.2019 08:00:00 11,4 8,4 10,5 9,9 11,8 14,1 21 12 35 19 S 1004,9 54 0 0,0
19.10.2019 07:00:00 11,2 8,2 10,1 9,9 11,8 14,1 27 14 43 23 S 1005,6 54 0 0,0
19.10.2019 06:00:00 11,3 7,9 10,5 9,9 11,9 14,1 27 15 46 25 S 1005,8 48 0 0,0
19.10.2019 05:00:00 11,2 7,7 10,2 9,8 11,9 14,1 21 11 40 21 S 1006,1 50 0 0,0
19.10.2019 04:00:00 11,3 7,5 10,4 9,7 12,0 14,1 28 15 43 23 S 1006,6 54 0 0,0
19.10.2019 03:00:00 11,1 7,1 9,9 9,6 12,1 14,1 23 13 37 20 S 1007,0 52 0 0,0
19.10.2019 02:00:00 11,0 6,7 9,7 9,6 12,2 14,1 25 13 35 19 S 1007,3 48 0 0,0
19.10.2019 01:00:00 11,1 6,3 9,6 9,7 12,3 14,1 24 13 37 20 S 1007,9 50 0 0,0
19.10.2019 00:00:00 11,1 6,3 9,8 9,8 12,5 14,1 25 13 37 20 SSW 1008,1 50 0 0,0
18.10.2019 23:00:00 10,6 6,4 9,3 9,9 12,6 14,1 23 12 36 19 SSW 1008,7 58 0 0,0
18.10.2019 22:00:00 10,7 6,1 9,3 10,1 12,7 14,1 24 13 39 21 SSW 1008,9 61 0 0,0
18.10.2019 21:00:00 10,8 6,0 9,3 10,4 12,9 14,1 26 14 41 22 SSW 1009,0 75 0 0,0
18.10.2019 20:00:00 11,1 6,1 9,5 10,8 12,9 14,1 21 12 33 18 SSW 1009,1 69 0 0,0
18.10.2019 19:00:00 11,4 6,3 10,0 11,5 13,0 14,1 24 13 37 20 SSW 1008,9 75 12 0,0
18.10.2019 18:00:00 12,1 6,6 11,5 12,2 13,0 14,1 21 11 48 26 SW 1008,3 75 52 0,0
18.10.2019 17:00:00 12,7 6,2 12,9 12,7 12,9 14,1 28 15 50 27 SW 1007,7 62 50 0,0
18.10.2019 16:00:00 12,9 7,4 13,8 12,7 12,9 14,1 35 19 61 33 SW 1007,3 60 59 0,0
18.10.2019 15:00:00 12,3 7,2 13,2 12,4 12,9 14,1 39 21 60 33 SW 1006,7 75 23 0,0
18.10.2019 14:00:00 11,4 6,8 11,7 12,1 13,0 14,1 39 21 62 34 SW 1006,7 57 18 0,1
18.10.2019 13:00:00 10,8 6,2 9,9 12,2 13,0 14,1 34 19 51 27 SSW 1006,8 73 0 0,5
18.10.2019 12:00:00 10,4 7,6 9,5 12,7 12,9 14,1 29 16 74 40 SW 1006,4 34 6 3,2
18.10.2019 11:00:00 15,0 9,9 16,1 12,9 12,9 14,1 29 16 51 28 S 1004,4 70 52 0,0
18.10.2019 10:00:00 14,4 9,9 15,0 12,0 13,0 14,1 25 13 42 23 S 1005,0 69 32 0,0
18.10.2019 09:00:00 13,3 9,7 12,4 11,9 13,0 14,1 21 12 38 20 S 1005,8 75 0 0,0
18.10.2019 08:00:00 13,4 9,6 12,1 11,9 13,0 14,1 24 13 40 22 SSW 1006,1 75 0 0,0
18.10.2019 07:00:00 13,4 10,2 12,0 12,0 13,1 14,1 21 12 42 23 S 1006,4 75 0 0,0
18.10.2019 06:00:00 13,6 10,5 12,8 12,0 13,1 14,1 23 12 41 22 S 1006,9 75 0 0,0
18.10.2019 05:00:00 13,6 10,4 12,5 11,8 13,2 14,1 24 13 39 21 S 1007,2 75 0 0,0
18.10.2019 04:00:00 13,1 10,2 12,2 11,6 13,3 14,1 28 15 42 23 S 1008,1 75 0 0,0
18.10.2019 03:00:00 12,5 9,7 11,4 11,6 13,4 14,1 15 8 41 22 SSW 1008,9 75 0 0,0
18.10.2019 02:00:00 12,4 9,6 11,0 11,8 13,5 14,1 22 12 40 22 S 1009,4 75 0 0,0
18.10.2019 01:00:00 12,4 10,0 10,8 12,1 13,6 14,1 19 10 32 18 SSW 1009,7 75 0 0,0
18.10.2019 00:00:00 12,7 10,6 11,3 12,4 13,7 14,1 19 10 36 20 SSW 1010,0 75 0 0,0
17.10.2019 23:00:00 13,0 11,2 11,8 12,8 13,7 14,1 23 12 34 18 SSW 1010,1 75 0 0,0
17.10.2019 22:00:00 13,5 11,7 12,5 13,2 13,7 14,1 23 13 34 18 SSW 1010,0 75 0 0,0
17.10.2019 21:00:00 13,5 12,1 13,0 13,6 13,8 14,1 21 11 31 17 SSW 1010,0 75 0 0,0
17.10.2019 20:00:00 14,2 11,6 13,7 13,8 13,8 14,1 19 10 28 15 SSW 1009,8 73 0 0,0
17.10.2019 19:00:00 14,2 11,7 13,7 14,1 13,7 14,1 19 10 31 17 SSW 1009,5 75 0 0,0
17.10.2019 18:00:00 14,6 12,1 14,2 14,5 13,7 14,1 18 10 30 16 SSW 1009,6 75 0 0,0
17.10.2019 17:00:00 14,6 12,1 14,4 14,7 13,5 14,1 18 10 33 18 SSW 1009,8 75 0 0,0
17.10.2019 16:00:00 15,2 11,8 15,1 15,2 13,4 14,1 23 12 31 17 SSW 1010,2 75 0 0,0
17.10.2019 15:00:00 14,6 12,4 16,0 15,0 13,3 14,1 10 5 19 10 SSE 1010,5 75 7 0,0
17.10.2019 14:00:00 13,6 11,7 14,4 14,5 13,2 14,1 16 9 29 16 SW 1011,2 33 0 0,0
17.10.2019 13:00:00 13,8 11,5 14,3 14,2 13,1 14,1 16 9 26 14 SW 1011,5 68 3 0,0
17.10.2019 12:00:00 13,7 11,0 15,3 13,7 13,1 14,1 16 9 29 15 SW 1011,6 75 19 0,0
17.10.2019 11:00:00 12,7 10,7 12,8 12,8 13,1 14,1 18 10 36 20 SW 1011,5 70 0 0,0
17.10.2019 10:00:00 12,1 11,4 12,1 12,7 13,1 14,1 25 13 44 24 WSW 1011,0 2,3 0 0,1
17.10.2019 09:00:00 13,4 11,8 12,6 12,6 13,1 14,1 26 14 40 21 SW 1010,0 75 0 0,1
17.10.2019 08:00:00 13,1 12,1 12,5 12,5 13,1 14,1 26 14 39 21 SSW 1009,3 8 0 0,1
17.10.2019 07:00:00 13,0 11,9 12,5 12,5 13,1 14,1 26 14 38 21 SSW 1008,8 60 0 0,2
17.10.2019 06:00:00 13,1 11,8 12,3 12,5 13,1 14,1 27 15 41 22 SSW 1008,8 58 0 0,2
17.10.2019 05:00:00 12,9 11,7 12,2 12,5 13,1 14,1 26 14 41 22 SSW 1008,7 42 0 0,0
17.10.2019 04:00:00 13,2 11,4 12,3 12,5 13,2 14,1 29 16 44 24 SSW 1008,6 18 0 0,0
17.10.2019 03:00:00 13,0 11,4 12,3 12,4 13,2 14,1 27 15 48 26 S 1008,7 75 0 0,4
17.10.2019 02:00:00 13,3 11,4 12,3 12,4 13,2 14,1 24 13 48 26 SSW 1008,5 59 0 0,1
17.10.2019 01:00:00 13,6 10,7 12,3 12,4 13,2 14,1 29 15 42 23 SSW 1008,2 75 0 0,0
17.10.2019 00:00:00 13,5 10,6 12,6 12,5 13,2 14,1 27 15 49 26 S 1008,4 64 0 0,2
16.10.2019 23:00:00 13,1 11,1 12,0 12,5 13,3 14,1 29 16 46 25 SSW 1008,8 18 0 0,7
16.10.2019 22:00:00 13,5 10,8 12,2 12,6 13,3 14,1 25 13 45 24 SSW 1008,7 30 0 0,1
16.10.2019 21:00:00 13,6 10,7 12,8 12,6 13,3 14,0 29 15 48 26 SSW 1008,7 69 0 0,0
16.10.2019 20:00:00 13,2 11,1 12,3 12,8 13,3 14,0 30 16 46 25 SSW 1008,9 68 0 0,2
16.10.2019 19:00:00 12,6 11,6 12,1 13,0 13,3 14,0 33 18 48 26 SSW 1009,0 3,0 0 0,2
16.10.2019 18:00:00 12,9 11,2 12,3 13,2 13,2 14,0 29 16 54 29 SSW 1008,6 75 0 0,0
16.10.2019 17:00:00 13,8 11,0 13,9 13,4 13,2 14,0 31 17 53 29 SSW 1008,5 75 0 0,0
16.10.2019 16:00:00 13,4 11,0 13,4 13,3 13,1 14,0 30 16 48 26 SSW 1008,7 39 0 0,0
16.10.2019 15:00:00 13,0 11,0 13,1 13,3 13,1 14,0 31 17 52 28 SSW 1008,8 37 0 0,0
16.10.2019 14:00:00 13,1 11,0 13,7 12,9 13,0 14,0 31 17 55 30 S 1008,9 75 0 0,2
16.10.2019 13:00:00 12,1 10,6 12,4 12,6 13,0 14,0 27 15 51 27 S 1009,6 8 0 0,6
16.10.2019 12:00:00 12,2 10,0 11,8 12,1 13,0 14,0 27 14 48 26 S 1010,0 37 1 0,0
16.10.2019 11:00:00 12,4 8,7 12,4 11,6 13,1 14,0 29 16 43 23 S 1010,0 66 30 0,0

tt = Température de l'air
td = dewpoint
tt 5cm = Température de l'air 5cm
tt -5cm = Température de l'air -5cm
tt -20cm = Température de l'air -20cm
tt -100cm = Température de l'air -100cm
ff = Vitesse du vent
fx = gusts
dd = Direction du vent
ppp = reduced air pressure
vv = visibility
sd = Ensoleillement
rr = Quantités de précipitations

stations d'obs. à proximité